Flag for U.S.A. Weather past 2 weeks in Frankfort, Kentucky, U.S.A.

Now
79 °F

Sunny.


Feels Like: 81 °F
Forecast: 62 / 82 °F
Wind: 5 mph from Northwest

Location: Capital City Airport

Current Time: Jul 1, 2015 at 4:00:14 PM

Latest Report: Jul 1, 2015 at 2:53 PM


Visibility: 7 mi

Pressure: 29.91 "Hg

Humidity: 67%

Dew point: 67 °F

Location of FrankfortLocation

Historic Weather in Frankfort — Graph

°F

Frankfort temperature yesterday

Maximum temperature yesterday: 83 °F (at 4:53 PM)
Minimum temperature yesterday: 64 °F (at 4:53 AM)
Average temperature yesterday: 70 °F

Past Weeks' High & Low Weather Summary

 TemperatureHumidityPressure
High89 °F (Jun 23, 2:53 PM)94% (Jun 16, 10:53 PM)30.15 "Hg (Jun 16, 10:53 PM)
Low60 °F (Jun 28, 3:53 AM)36% (Jun 28, 1:53 PM)29.65 "Hg (Jun 20, 10:53 AM)
Average74 °F76%29.95 "Hg
* Reported Jun 16 2:53 PM — Jul 1 2:53 PM, Frankfort, Weather by CustomWeather, © 2015

Note: Actual official high and low records may vary slightly from our data, if they occured in-between our weather recording intervals... More about our weather records

Advertising

Frankfort weather history for previous 24 hours

 ConditionsComfort  
Time TempWeatherWind HumidityBarometerVisibility
2:53 PM
Wed, Jul 1
79 °FSunny.5 mph67%29.91 "Hg7 mi
1:53 PM77 °FBroken clouds.No wind71%29.92 "Hg7 mi
12:53 PM77 °FScattered clouds.5 mph74%29.93 "Hg6 mi
11:53 AM76 °FScattered clouds.3 mph74%29.94 "Hg6 mi
10:53 AM73 °FOvercast.No wind81%29.93 "Hg5 mi
9:53 AM72 °FFog.3 mph87%29.93 "Hg5 mi
9:02 AM70 °FFog.5 mph90%29.95 "Hg5 mi
8:53 AM70 °FFog.7 mph90%29.92 "Hg5 mi
7:53 AM67 °FFog.No wind93%29.90 "Hg3 mi
6:53 AM66 °FFog.3 mph93%29.88 "Hg3 mi
5:53 AM66 °FFog.6 mph90%29.86 "Hg5 mi
4:53 AM64 °FFog.9 mph94%29.86 "Hg5 mi
3:53 AM65 °FFog.9 mph91%29.87 "Hg5 mi
2:53 AM65 °FFog.No wind91%29.86 "Hg6 mi
1:53 AM64 °FRain. Fog.No wind94%29.87 "Hg3 mi
11:53 PM
Tue, Jun 30
65 °FLight rain. Fog.9 mph91%29.90 "Hg4 mi
11:04 PM65 °FThundershowers. Fog.5 mph94%29.92 "Hg4 mi
10:03 PM65 °FThundershowers. Fog.No wind91%29.92 "Hg4 mi
8:53 PM65 °FFog.No wind87%29.85 "Hg5 mi
7:53 PM64 °FThunderstorms. Fog.10 mph87%29.85 "Hg1 mi
7:02 PM67 °FThunderstorms. Overcast.5 mph76%29.87 "Hg3 mi
6:52 PM69 °FStrong thunderstorms. Overcast.5 mph70%29.85 "Hg2 mi
5:53 PM82 °FPassing clouds.9 mph55%29.81 "Hg9 mi
4:53 PM83 °FPassing clouds.8 mph51%29.79 "Hg10 mi
Weather by CustomWeather, © 2015

See weather overviewHow to use our weather pages